Home > Weather > Redmond > Past weeks

Flag for USA Past Weather in Redmond, Washington, USA — Yesterday and Last 2 Weeks

Now
74 °F

Passing clouds.


Feels Like: 77 °F
Forecast: 59 / 82 °F
Wind: 7 mph from Northwest

Location: Seattle Boeing Field

Current Time: Jul 27, 2016 at 12:31:11 PM

Latest Report: Jul 27, 2016 at 11:53 AM


Visibility: 10 mi

Pressure: 30.12 "Hg

Humidity: 56%

Dew Point: 57 °F

Location of RedmondLocation

Past Weather in Redmond — Graph

°F

Redmond Temperature Yesterday

Maximum temperature yesterday: 79 °F (at 6:53 PM)
Minimum temperature yesterday: 60 °F (at 5:04 AM)
Average temperature yesterday: 68 °F

High & Low Weather Summary for the Past Weeks

 TemperatureHumidityPressure
High84 °F (Jul 25, 3:53 PM)90% (Jul 22, 7:53 AM)30.27 "Hg (Jul 22, 7:53 AM)
Low58 °F (Jul 14, 5:53 AM)30% (Jul 20, 4:53 PM)29.88 "Hg (Jul 17, 6:53 PM)
Average68 °F62%30.10 "Hg
* Reported Jul 12 10:53 AM — Jul 27 10:53 AM, Redmond, Weather by CustomWeather, © 2016

Note: Actual official high and low records may vary slightly from our data, if they occured in-between our weather recording intervals... More about our weather records

Advertising

Redmond Weather History for the Previous 24 Hours

Scroll right to see more
 ConditionsComfort  
Time TempWeatherWind HumidityBarometerVisibility
10:53 AM
Wed, Jul 27
72 °FScattered clouds.10 mph55%30.12 "Hg10 mi
9:53 AM69 °FScattered clouds.7 mph63%30.14 "Hg10 mi
8:53 AM68 °FSunny.3 mph65%30.14 "Hg10 mi
7:53 AM64 °FSunny.No wind73%30.14 "Hg10 mi
6:53 AM61 °FSunny.No wind78%30.14 "Hg10 mi
5:53 AM60 °FClear.No wind80%30.13 "Hg10 mi
4:53 AM60 °FClear.No wind80%30.11 "Hg10 mi
3:53 AM60 °FClear.No wind83%30.11 "Hg10 mi
2:53 AM61 °FClear.6 mph81%30.10 "Hg10 mi
1:53 AM62 °FClear.6 mph78%30.09 "Hg10 mi
12:53 AM63 °FClear.5 mph78%30.10 "Hg10 mi
11:53 PM
Tue, Jul 26
65 °FClear.3 mph73%30.10 "Hg10 mi
10:53 PM67 °FClear.5 mph68%30.10 "Hg10 mi
9:53 PM70 °FClear.6 mph61%30.09 "Hg10 mi
8:53 PM74 °FSunny.5 mph53%30.08 "Hg10 mi
7:53 PM77 °FSunny.5 mph50%30.08 "Hg10 mi
6:53 PM79 °FSunny.7 mph45%30.08 "Hg10 mi
5:53 PM78 °FSunny.5 mph42%30.09 "Hg10 mi
4:53 PM77 °FSunny.3 mph48%30.10 "Hg10 mi
3:53 PM75 °FSunny.5 mph54%30.11 "Hg10 mi
2:53 PM74 °FSunny.5 mph56%30.12 "Hg10 mi
1:53 PM70 °FPassing clouds.8 mph61%30.15 "Hg10 mi
12:53 PM68 °FPartly sunny.5 mph65%30.16 "Hg10 mi
Weather by CustomWeather, © 2016

See weather overviewHow to use our weather pages